Regional Weather Roundup
Issued by NWS San Angelo, TX

Home | Current Version | Previous Version | Text Only | Print | Product List | Glossary On
Versions: 1 2 3 4 5 6 7 8 9 10 11 12 13 14 15 16 17 18 19 20 21 22 23 24 25 26 27 28 29 30 31 32 33 34 35 36 37 38 39 40 41 42 43 44 45 46 47 48 49 50
000
ASUS44 KSJT 080311
RWRSJT
WEST CENTRAL TEXAS REGIONAL WEATHER ROUNDUP
NATIONAL WEATHER SERVICE SAN ANGELO TX
900 PM CST SUN FEB 07 2016

NOTE: "FAIR" INDICATES FEW OR NO CLOUDS BELOW 12,000 FEET WITH NO
SIGNIFICANT WEATHER AND/OR OBSTRUCTIONS TO VISIBILITY.

TXZ049-054-064>066-071>073-076>078-098-099-113-114-127-128-139-140-
154-155-168>170-080400
...LOCATIONS ACROSS WEST CENTRAL TEXAS...

CITY           SKY/WX    TMP DP  RH WIND       PRES   REMARKS
SAN ANGELO     CLEAR     53  23  31 N10       30.22R
ABILENE        CLOUDY    47  25  42 N3        30.26R
DYESS AFB      CLOUDY    44  26  47 N7        30.26R
JUNCTION       CLEAR     48  22  35 CALM      30.18R
SWEETWATER     CLOUDY    49  26  39 NE7       30.29R
BROWNWOOD      CLEAR     52  25  35 N12       30.21R
COLEMAN        PTCLDY    49  23  36 N15       30.22R
SONORA         CLOUDY    54  21  28 N10       30.24R
OZONA          FAIR      50  19  29 N13       30.24R
BRADY          NOT AVBL
$$

TEXAS PANHANDLE/OKLAHOMA PANHANDLE

CITY           SKY/WX    TMP DP  RH WIND       PRES   REMARKS
AMARILLO       CLEAR     35  16  45 NE14      30.37R WCI  26
BORGER         CLEAR     38  16  40 NE12      30.39R WCI  30
CANADIAN       CLEAR     38  15  39 NW9       30.37R WCI  32
DALHART        CLEAR     33  16  49 N17G25    30.38R WCI  22
DUMAS          CLEAR     31  15  53 N9        30.38R WCI  22
GUYMON         NOT AVBL
HEREFORD       NOT AVBL
PAMPA          CLEAR     35  16  47 N10       30.38R WCI  27
PERRYTON       PTCLDY    34  17  50 NW10      30.36S WCI  26
$$

SOUTHERN PANHANDLE/SOUTH PLAINS/ROLLING PLAINS

CITY           SKY/WX    TMP DP  RH WIND       PRES   REMARKS
LUBBOCK        PTCLDY    39  18  42 N9        30.29R WCI  33
SNYDER           N/A     49  25  39 NE8       30.28R
CHILDRESS      CLEAR     48  19  31 N18G29    30.33R
SEMINOLE       CLOUDY    45  19  36 E5        30.28R
$$

PERMIAN BASIN

CITY           SKY/WX    TMP DP  RH WIND       PRES   REMARKS
MIDLAND        CLOUDY    52  19  27 E12       30.25R
ODESSA         CLOUDY    49  20  31 E10       30.25R
WINK           CLEAR     52  19  27 NE10      30.22R
$$

FAR WEST/SOUTHWEST MOUNTAINS/TRANS PECOS

CITY           SKY/WX    TMP DP  RH WIND       PRES   REMARKS
ALPINE         CLOUDY    46  15  29 CALM      30.32R
DRYDEN           N/A     55  16  21 MISG      30.18R
EL PASO        MOCLDY    52  14  22 SW6       30.25R
FORT STOCKTON  CLOUDY    52  22  30 SE6       30.22R
GUADALUPE PASS CLEAR     51  16  24 NE17      30.30R
MARFA          CLOUDY    46  11  24 NE3       30.29R
PECOS          CLOUDY    52  20  28 NE6       30.22R
$$

DALLAS/FORT WORTH METROPLEX

CITY           SKY/WX    TMP DP  RH WIND       PRES   REMARKS
DFW AIRPORT    PTCLDY    54  30  40 NW12      30.19R
FTW MEACHAM    CLEAR     52  29  41 N6        30.20R
DAL-EXECUTIVE  CLEAR     50  33  52 NW3       30.18R
GRAND PRAIRIE  CLEAR     53  32  45 W3        30.20R
ADDISON        NOT AVBL
MESQUITE       CLEAR     48  33  57 CALM      30.18R
LANCASTER      CLEAR     46  32  57 CALM      30.20R
$$

NORTH CENTRAL TEXAS

CITY           SKY/WX    TMP DP  RH WIND       PRES   REMARKS
SHRMAN/DENISON CLEAR     48  31  50 CALM      30.22R
GAINESVILLE    PTCLDY    48  29  49 N10       30.24R
BRIDGEPORT     PTCLDY    49  35  56 N7        30.25R
DENTON         CLEAR     46  31  55 NW8       30.21R
WAXAHACHIE     CLEAR     48  36  62 CALM      30.20R
GRANBURY       CLEAR     48  30  49 NW6       30.22R
$$

WESTERN NORTH TEXAS

CITY           SKY/WX    TMP DP  RH WIND       PRES   REMARKS
WICHITA FALLS  CLEAR     42  28  57 N13       30.27R WCI  35
VERNON         CLEAR     51  18  27 N23       30.31R
BRECKENRIDGE   CLEAR     49  26  40 N7        30.24R
COMANCHE       CLOUDY    50  27  40 N8        30.22R
$$

CENTRAL AND SOUTH CENTRAL TEXAS

CITY           SKY/WX    TMP DP  RH WIND       PRES   REMARKS
AUSTIN/BERGSTM PTCLDY    47  32  56 S3        30.14R
WACO           PTCLDY    41  33  73 N5        30.17R WCI  38
HILLSBORO      PTCLDY    44  32  61 NW3       30.19R
TEMPLE         CLEAR     53  32  44 S7        30.15R
KILLEEN-GRAY   CLEAR     50  33  51 CALM      30.14R
FORT HOOD      CLEAR     54  33  45 E3        30.12R
GEORGETOWN     NOT AVBL
LAGO VISTA     FAIR      59  30  32 SW3       30.14S
SAN MARCOS     CLOUDY    50  28  43 W6        30.16R
NEW BRAUNFELS  PTCLDY    52  30  43 SW6       30.14R
RANDOLPH AFB   CLOUDY    55  30  38 S5        30.15R
SAN ANTONIO    PTCLDY    50  34  54 CALM      30.15S
STINSON        CLEAR     49  32  52 CALM      30.13F
PLEASANTON     NOT AVBL
LA GRANGE      CLOUDY    52  36  54 S6        30.14R
GIDDINGS       CLEAR     46  35  66 CALM      30.18S
$$

EAST TEXAS

CITY           SKY/WX    TMP DP  RH WIND       PRES   REMARKS
PARIS          CLEAR     48  28  46 N8        30.17R
CLARKSVILLE    NOT AVBL
TYLER          CLEAR     51  32  48 W6        30.16R
LONGVIEW       CLEAR     50  33  52 W6        30.14R
PALESTINE      PTCLDY    46  35  65 CALM      30.18R
NACOGDOCHES    CLEAR     41  36  81 CALM      30.15S
$$

TEXAS HILL COUNTRY AND EDWARDS PLATEAU

CITY           SKY/WX    TMP DP  RH WIND       PRES   REMARKS
LLANO          CLEAR     55  28  35 N9        30.18R
HORSESHOE BAY  FAIR      50  31  48 CALM      30.13R
KERRVILLE      CLOUDY    44  30  57 N5        30.17R
FREDERICKSBRG  CLOUDY    45  27  48 NW7       30.16R
ROCKSPRINGS    CLOUDY    54  23  30 SW5       30.20R
HONDO          CLOUDY    45  21  38 CALM      30.17S
UVALDE         CLOUDY    49  31  50 CALM      30.16S
DEL RIO        PTCLDY    54  24  31 CALM      30.15R
$$

SOUTHEAST TEXAS

CITY           SKY/WX    TMP DP  RH WIND       PRES   REMARKS
COLLEGE STN    CLEAR     49  34  56 CALM      30.16R
CALDWELL       CLEAR     48  32  53 CALM      30.18R
CROCKETT       CLEAR     41  36  81 CALM      30.19R
BRENHAM        CLEAR     51  35  55 CALM      30.16S
HUNTSVILLE     CLEAR     49  36  61 SW3       30.15S
CONROE         CLEAR     42  36  79 CALM      30.17S
HOUSTON BUSH   PTCLDY    56  43  61 S5        30.17S
HOUSTON HOBBY  PTCLDY    53  41  63 SW6       30.17S
PERLAND        CLEAR     52  43  71 CALM      30.20R
WHARTON        CLOUDY    46  37  70 S6        30.19S
$$

THE UPPER TEXAS COAST

CITY           SKY/WX    TMP DP  RH WIND       PRES   REMARKS
ORANGE         CLEAR     42  39  88 CALM      30.18F
PORT ARTHUR    CLEAR     44  42  93 S3        30.17F
GALVESTON      CLEAR     53  49  86 SW7       30.20R
ANGLETON       CLOUDY    47  43  86 S3        30.18F
BAY CITY       CLOUDY    47  44  90 CALM      30.19S
$$

TEXAS COASTAL BEND, RIO GRANDE PLAINS DEEP SOUTH TEXAS

CITY           SKY/WX    TMP DP  RH WIND       PRES   REMARKS
VICTORIA       PTCLDY    47  42  83 CALM      30.19R
BEEVILLE       FAIR      50  44  78 E3        30.18R
ROCKPORT       CLEAR     58  49  72 S6        30.18R
PORT ARANSAS   CLOUDY    58  52  79 S8        30.17S
PORT LAVACA    CLOUDY    49  45  83 SE5       30.19S
CORPUS CHRISTI MOCLDY    55  44  66 SE10      30.17R
KINGSVILLE NAS CLOUDY    51  45  79 SE7       30.17R
COTULLA        CLOUDY    57  24  28 NE5       30.16R
LAREDO         MOCLDY    61  25  25 NE6       30.14R
BROWNSVILLE    PTCLDY    54  47  77 SE7       30.17S
PORT ISABEL    CLEAR     55  48  77 S7        30.16R
HEBBRONVILLE   NOT AVBL
MCALLEN        MOCLDY    62  42  47 SE10      30.15S
WESLACO        PTCLDY    59  42  53 S7        30.15S
FALFURRIAS     CLOUDY    53  41  64 E5        30.17R
EDINBURG       PTCLDY    61  40  45 S9        30.15S
$$



USA.gov is the U.S. government's official web portal to all federal, state and local government web resources and services.